Location: Chervonnoye
(48.6000°N, 34.4000°E)
Time: 20:41:57
(UTC+00:00)

Cosmos 2369 Rocket - Pass Details

Date: 23 November 2020
Orbit: 829 x 852 km, 71.0° (Epoch: 27 January)

Event Time Altitude Azimuth Distance (km) Brightness Sun altitude
Rises 14:43:32 0° 335° (NNW) 3,430 5.4 -8.1°
Reaches altitude 10° 14:47:17 10° 360° (N) 2,488 4.4 -8.7°
Maximum altitude 14:50:19 14° 32° (NNE) 2,182 3.9 -9.1°
Enters shadow 14:52:45 11° 59° (ENE) 2,378 3.9 -9.5°
